Location: Katowice
(50.2611°N, 19.0242°E)
Time: 01:14:47
(UTC+02:00)

Explorer 7 - Pass Details

Date: 31 August 2019
Orbit: 485 x 680 km, 50.3° (Epoch: 18 October)

Event Time Altitude Azimuth Distance (km) Brightness Sun altitude
Rises 10:32:50 0° 276° (W) 3,017 10.2 40.3°
Reaches altitude 10° 10:35:14 10° 277° (W) 2,087 9.5 40.6°
Maximum altitude 10:40:05 87° 190° (S) 651 8.0 41.1°
Drops below altitude 10° 10:44:41 10° 100° (E) 1,984 10.4 41.6°
Sets 10:46:55 0° 100° (E) 2,857 11.0 41.8°
